Time,TemperatureF,DewpointF,PressureIn,WindDirection,WindDirectionDegrees,WindSpeedMPH,WindSpeedGustMPH,Humidity,HourlyPrecipIn,Conditions,Clouds,dailyrainin,SoftwareType,DateUTC
2013-06-17 00:01:00,66.9,63.6,29.94,SW,225,0.0,0.0,89,0.00,,---,0.00,VWS V14.01,2013-06-17 04:01:00,
2013-06-17 00:06:00,66.7,61.8,29.94,SW,225,0.0,0.0,84,0.00,,---,0.00,VWS V14.01,2013-06-17 04:06:00,
2013-06-17 00:11:00,66.4,60.7,29.94,SSW,202,0.0,0.0,82,0.00,,---,0.00,VWS V14.01,2013-06-17 04:11:00,
2013-06-17 00:16:00,66.0,60.4,29.94,SE,135,0.0,0.0,82,0.00,,---,0.00,VWS V14.01,2013-06-17 04:16:00,
2013-06-17 00:21:00,65.7,60.4,29.94,South,180,0.0,0.0,83,0.00,,---,0.00,VWS V14.01,2013-06-17 04:21:00,
2013-06-17 00:26:00,65.3,61.0,29.94,South,180,0.0,0.0,86,0.00,,---,0.00,VWS V14.01,2013-06-17 04:26:00,
2013-06-17 00:31:00,64.9,61.0,29.94,SSW,202,0.0,0.0,87,0.00,,---,0.00,VWS V14.01,2013-06-17 04:31:00,
2013-06-17 00:36:00,64.8,61.5,29.94,SSW,202,0.0,0.0,89,0.00,,---,0.00,VWS V14.01,2013-06-17 04:36:00,
2013-06-17 00:41:00,64.6,61.9,29.94,SW,225,0.0,0.0,91,0.00,,---,0.00,VWS V14.01,2013-06-17 04:41:00,
2013-06-17 00:46:00,64.6,62.2,29.94,South,180,0.0,0.0,92,0.00,,---,0.00,VWS V14.01,2013-06-17 04:46:00,
2013-06-17 00:51:00,64.6,62.5,29.94,SW,225,0.0,0.0,93,0.00,,---,0.00,VWS V14.01,2013-06-17 04:51:00,
2013-06-17 00:56:00,64.6,62.8,29.94,SW,225,0.0,0.0,94,0.00,,---,0.00,VWS V14.01,2013-06-17 04:56:00,
2013-06-17 01:01:00,64.4,62.9,29.94,SW,225,0.0,0.0,95,0.00,,---,0.00,VWS V14.01,2013-06-17 05:01:00,
2013-06-17 01:06:00,64.2,63.1,29.94,SW,225,0.0,0.0,96,0.00,,---,0.00,VWS V14.01,2013-06-17 05:06:00,
2013-06-17 01:11:00,64.2,63.1,29.94,SW,225,0.0,0.0,96,0.00,,---,0.00,VWS V14.01,2013-06-17 05:11:00,
2013-06-17 01:16:00,64.2,63.3,29.94,South,180,0.0,0.0,97,0.00,,---,0.00,VWS V14.01,2013-06-17 05:16:00,
2013-06-17 01:21:00,64.0,63.2,29.94,SSW,202,0.0,0.0,97,0.00,,---,0.00,VWS V14.01,2013-06-17 05:21:00,
2013-06-17 01:26:00,63.9,63.0,29.94,SW,225,0.0,0.0,97,0.00,,---,0.00,VWS V14.01,2013-06-17 05:26:00,
2013-06-17 01:31:00,63.9,63.3,29.94,SW,225,0.0,0.0,98,0.00,,---,0.00,VWS V14.01,2013-06-17 05:31:00,
2013-06-17 01:36:00,63.9,63.3,29.94,South,180,0.0,0.0,98,0.00,,---,0.00,VWS V14.01,2013-06-17 05:36:00,
2013-06-17 01:41:00,63.7,63.1,29.91,SW,225,0.0,0.0,98,0.00,,---,0.00,VWS V14.01,2013-06-17 05:41:00,
2013-06-17 01:46:00,63.9,63.3,29.91,SW,225,0.0,0.0,98,0.00,,---,0.00,VWS V14.01,2013-06-17 05:46:00,
2013-06-17 01:51:00,64.0,63.5,29.91,South,180,0.0,0.0,98,0.00,,---,0.00,VWS V14.01,2013-06-17 05:51:00,
2013-06-17 01:56:00,63.9,63.3,29.91,SW,225,0.0,0.0,98,0.00,,---,0.00,VWS V14.01,2013-06-17 05:56:00,
2013-06-17 02:01:00,64.2,63.7,29.91,South,180,0.0,0.0,98,0.00,,---,0.00,VWS V14.01,2013-06-17 06:01:00,
2013-06-17 02:06:00,64.2,63.7,29.91,SW,225,0.0,0.0,98,0.00,,---,0.00,VWS V14.01,2013-06-17 06:06:00,
2013-06-17 02:11:00,64.4,63.8,29.91,South,180,0.0,3.1,98,0.00,,---,0.00,VWS V14.01,2013-06-17 06:11:00,
2013-06-17 02:16:00,64.4,63.8,29.91,SSW,202,0.0,0.0,98,0.00,,---,0.00,VWS V14.01,2013-06-17 06:16:00,
2013-06-17 02:21:00,64.4,63.8,29.91,SW,225,3.1,3.6,98,0.00,,---,0.00,VWS V14.01,2013-06-17 06:21:00,
2013-06-17 02:26:00,64.4,63.8,29.94,SW,225,0.0,0.0,98,0.00,,---,0.00,VWS V14.01,2013-06-17 06:26:00,
2013-06-17 02:31:00,64.2,63.7,29.94,South,180,2.2,2.2,98,0.00,,---,0.00,VWS V14.01,2013-06-17 06:31:00,
2013-06-17 02:36:00,64.2,63.7,29.94,South,180,0.0,0.0,98,0.00,,---,0.00,VWS V14.01,2013-06-17 06:36:00,
2013-06-17 02:41:00,64.2,63.7,29.94,South,180,0.0,0.0,98,0.00,,---,0.00,VWS V14.01,2013-06-17 06:41:00,
2013-06-17 02:46:00,64.2,63.7,29.94,SW,225,0.0,0.0,98,0.00,,---,0.00,VWS V14.01,2013-06-17 06:46:00,
2013-06-17 02:51:00,64.0,63.5,29.94,SSE,158,0.0,0.0,98,0.00,,---,0.00,VWS V14.01,2013-06-17 06:51:00,
2013-06-17 02:56:00,63.9,63.3,29.94,South,180,0.0,0.0,98,0.00,,---,0.00,VWS V14.01,2013-06-17 06:56:00,
2013-06-17 03:01:00,63.7,63.1,29.94,SW,225,0.0,0.0,98,0.00,,---,0.00,VWS V14.01,2013-06-17 07:01:00,
2013-06-17 03:06:00,63.5,62.9,29.94,South,180,0.0,0.0,98,0.00,,---,0.00,VWS V14.01,2013-06-17 07:06:00,
2013-06-17 03:11:00,63.3,62.8,29.94,SW,225,0.0,0.0,98,0.00,,---,0.00,VWS V14.01,2013-06-17 07:11:00,
2013-06-17 03:16:00,63.5,62.9,29.94,SSE,158,0.0,0.0,98,0.00,,---,0.00,VWS V14.01,2013-06-17 07:16:00,
2013-06-17 03:21:00,63.5,62.9,29.94,SSW,202,0.0,0.0,98,0.00,,---,0.00,VWS V14.01,2013-06-17 07:21:00,
2013-06-17 03:26:00,63.3,62.8,29.94,SSW,202,0.0,0.0,98,0.00,,---,0.00,VWS V14.01,2013-06-17 07:26:00,
2013-06-17 03:31:00,63.1,62.6,29.94,SW,225,0.0,0.0,98,0.00,,---,0.00,VWS V14.01,2013-06-17 07:31:00,
2013-06-17 03:36:00,63.1,62.6,29.94,SW,225,0.0,0.0,98,0.00,,---,0.00,VWS V14.01,2013-06-17 07:36:00,
2013-06-17 03:41:00,63.1,62.6,29.94,South,180,0.0,0.0,98,0.00,,---,0.00,VWS V14.01,2013-06-17 07:41:00,
2013-06-17 03:46:00,63.1,62.6,29.94,SW,225,0.0,0.0,98,0.00,,---,0.00,VWS V14.01,2013-06-17 07:46:00,
2013-06-17 03:51:00,63.0,62.4,29.94,SSW,202,0.0,0.0,98,0.00,,---,0.00,VWS V14.01,2013-06-17 07:51:00,
2013-06-17 03:56:00,63.0,62.4,29.94,South,180,0.0,0.0,98,0.00,,---,0.00,VWS V14.01,2013-06-17 07:56:00,
2013-06-17 04:01:00,63.0,62.4,29.94,South,180,0.0,0.0,98,0.00,,---,0.00,VWS V14.01,2013-06-17 08:01:00,
2013-06-17 04:06:00,63.0,62.4,29.94,South,180,0.0,0.0,98,0.00,,---,0.00,VWS V14.01,2013-06-17 08:06:00,
2013-06-17 04:11:00,63.0,62.4,29.94,SW,225,0.0,0.0,98,0.00,,---,0.00,VWS V14.01,2013-06-17 08:11:00,
2013-06-17 04:16:00,63.0,62.4,29.94,South,180,0.0,0.0,98,0.00,,---,0.00,VWS V14.01,2013-06-17 08:16:00,
2013-06-17 04:21:00,63.0,62.4,29.94,South,180,0.0,0.0,98,0.00,,---,0.00,VWS V14.01,2013-06-17 08:21:00,
2013-06-17 04:26:00,63.0,62.4,29.94,South,180,0.0,0.0,98,0.00,,---,0.00,VWS V14.01,2013-06-17 08:26:00,
2013-06-17 04:31:00,62.8,62.2,29.94,South,180,0.0,0.0,98,0.00,,---,0.00,VWS V14.01,2013-06-17 08:31:00,
2013-06-17 04:36:00,62.8,62.2,29.94,South,180,0.0,0.0,98,0.00,,---,0.00,VWS V14.01,2013-06-17 08:36:00,
2013-06-17 04:41:00,62.6,62.0,29.94,SW,225,0.0,0.0,98,0.00,,---,0.00,VWS V14.01,2013-06-17 08:41:00,
2013-06-17 04:46:00,62.6,62.0,29.94,SW,225,0.0,0.0,98,0.00,,---,0.00,VWS V14.01,2013-06-17 08:46:00,
2013-06-17 04:51:00,62.6,62.0,29.94,SSW,202,0.0,2.7,98,0.00,,---,0.00,VWS V14.01,2013-06-17 08:51:00,
2013-06-17 04:56:00,62.6,62.0,29.94,SSE,158,0.0,0.0,98,0.00,,---,0.00,VWS V14.01,2013-06-17 08:56:00,
2013-06-17 05:01:00,62.4,61.8,29.94,SW,225,0.0,0.0,98,0.00,,---,0.00,VWS V14.01,2013-06-17 09:01:00,
2013-06-17 05:06:00,62.2,61.7,29.94,SW,225,0.0,0.0,98,0.00,,---,0.00,VWS V14.01,2013-06-17 09:06:00,
2013-06-17 05:11:00,62.2,61.7,29.94,SSW,202,0.0,0.0,98,0.00,,---,0.00,VWS V14.01,2013-06-17 09:11:00,
2013-06-17 05:16:00,61.9,61.3,29.94,SSE,158,0.0,0.0,98,0.00,,---,0.00,VWS V14.01,2013-06-17 09:16:00,
2013-06-17 05:21:00,61.7,61.1,29.94,SW,225,0.0,0.0,98,0.00,,---,0.00,VWS V14.01,2013-06-17 09:21:00,
2013-06-17 05:26:00,61.5,61.0,29.94,SW,225,0.0,0.0,98,0.00,,---,0.00,VWS V14.01,2013-06-17 09:26:00,
2013-06-17 05:31:00,61.2,60.6,29.94,South,180,0.0,0.0,98,0.00,,---,0.00,VWS V14.01,2013-06-17 09:31:00,
2013-06-17 05:36:00,61.0,60.4,29.94,SSW,202,0.0,0.0,98,0.00,,---,0.00,VWS V14.01,2013-06-17 09:36:00,
2013-06-17 05:41:00,60.8,60.2,29.94,SW,225,0.0,0.0,98,0.00,,---,0.00,VWS V14.01,2013-06-17 09:41:00,
2013-06-17 05:46:00,60.6,60.1,29.94,SW,225,0.0,0.0,98,0.00,,---,0.00,VWS V14.01,2013-06-17 09:46:00,
2013-06-17 05:51:00,60.4,59.9,29.94,West,270,0.0,0.0,98,0.00,,---,0.00,VWS V14.01,2013-06-17 09:51:00,
2013-06-17 05:56:00,60.6,60.1,29.94,SW,225,0.0,0.0,98,0.00,,---,0.00,VWS V14.01,2013-06-17 09:56:00,
2013-06-17 06:01:00,60.6,60.1,29.94,SW,225,0.0,0.0,98,0.00,,---,0.00,VWS V14.01,2013-06-17 10:01:00,
2013-06-17 06:06:00,60.8,60.2,29.94,SSW,202,0.0,0.0,98,0.00,,---,0.00,VWS V14.01,2013-06-17 10:06:00,
2013-06-17 06:11:00,60.6,60.1,29.94,SW,225,0.0,0.0,98,0.00,,---,0.00,VWS V14.01,2013-06-17 10:11:00,
2013-06-17 06:16:00,60.6,60.1,29.94,SW,225,0.0,0.0,98,0.00,,---,0.00,VWS V14.01,2013-06-17 10:16:00,
2013-06-17 06:21:00,60.8,60.2,29.94,SW,225,0.0,0.0,98,0.00,,---,0.00,VWS V14.01,2013-06-17 10:21:00,
2013-06-17 06:26:00,60.8,60.2,29.94,SSW,202,0.0,0.0,98,0.00,,---,0.00,VWS V14.01,2013-06-17 10:26:00,
2013-06-17 06:31:00,60.8,60.2,29.94,SW,225,0.0,0.0,98,0.00,,---,0.00,VWS V14.01,2013-06-17 10:31:00,
2013-06-17 06:36:00,61.0,60.4,29.94,SW,225,0.0,0.0,98,0.00,,---,0.00,VWS V14.01,2013-06-17 10:36:00,
2013-06-17 06:41:00,61.0,60.4,29.94,SE,135,0.0,0.0,98,0.00,,---,0.00,VWS V14.01,2013-06-17 10:41:00,
2013-06-17 06:46:00,61.3,60.8,29.94,SW,225,0.0,5.8,98,0.00,,---,0.00,VWS V14.01,2013-06-17 10:46:00,
2013-06-17 06:51:00,62.1,61.5,29.94,South,180,0.0,0.0,98,0.00,,---,0.00,VWS V14.01,2013-06-17 10:51:00,
2013-06-17 06:56:00,62.4,61.8,29.94,SW,225,0.0,0.0,98,0.00,,---,0.00,VWS V14.01,2013-06-17 10:56:00,
2013-06-17 07:01:00,62.8,61.9,29.94,SE,135,0.0,0.0,97,0.00,,---,0.00,VWS V14.01,2013-06-17 11:01:00,
2013-06-17 07:06:00,63.0,61.8,29.94,SSW,202,0.0,2.7,96,0.00,,---,0.00,VWS V14.01,2013-06-17 11:06:00,
2013-06-17 07:11:00,63.5,62.0,29.97,South,180,0.0,0.0,95,0.00,,---,0.00,VWS V14.01,2013-06-17 11:11:00,
2013-06-17 07:16:00,63.7,61.9,29.97,South,180,0.0,0.0,94,0.00,,---,0.00,VWS V14.01,2013-06-17 11:16:00,
2013-06-17 07:21:00,63.9,61.8,29.97,SW,225,0.0,0.0,93,0.00,,---,0.00,VWS V14.01,2013-06-17 11:21:00,
2013-06-17 07:26:00,64.2,61.5,29.97,SW,225,0.0,0.0,91,0.00,,---,0.00,VWS V14.01,2013-06-17 11:26:00,
2013-06-17 07:31:00,64.8,61.5,29.97,SW,225,0.0,0.0,89,0.00,,---,0.00,VWS V14.01,2013-06-17 11:31:00,
2013-06-17 07:36:00,65.1,61.2,29.97,South,180,0.0,0.0,87,0.00,,---,0.00,VWS V14.01,2013-06-17 11:36:00,
2013-06-17 07:41:00,65.5,60.9,29.97,SW,225,0.0,0.0,85,0.00,,---,0.00,VWS V14.01,2013-06-17 11:41:00,
2013-06-17 07:46:00,66.0,60.7,29.97,SW,225,0.0,0.0,83,0.00,,---,0.00,VWS V14.01,2013-06-17 11:46:00,
2013-06-17 07:51:00,66.4,60.4,29.97,SW,225,0.0,0.0,81,0.00,,---,0.00,VWS V14.01,2013-06-17 11:51:00,
2013-06-17 07:56:00,67.5,60.0,29.97,SW,225,0.0,0.0,77,0.00,,---,0.00,VWS V14.01,2013-06-17 11:56:00,
2013-06-17 08:01:00,68.5,59.5,29.97,SW,225,0.0,3.1,73,0.00,,---,0.00,VWS V14.01,2013-06-17 12:01:00,
2013-06-17 08:06:00,69.6,59.8,29.97,SE,135,0.0,0.0,71,0.00,,---,0.00,VWS V14.01,2013-06-17 12:06:00,
2013-06-17 08:11:00,70.5,59.5,29.97,SSW,202,0.0,0.0,68,0.00,,---,0.00,VWS V14.01,2013-06-17 12:11:00,
2013-06-17 08:16:00,71.1,57.8,29.97,SSE,158,0.0,0.0,63,0.00,,---,0.00,VWS V14.01,2013-06-17 12:16:00,
2013-06-17 08:21:00,72.0,57.3,29.97,South,180,0.0,0.0,60,0.00,,---,0.00,VWS V14.01,2013-06-17 12:21:00,
2013-06-17 08:26:00,72.5,56.9,29.97,West,270,0.0,0.0,58,0.00,,---,0.00,VWS V14.01,2013-06-17 12:26:00,
2013-06-17 08:31:00,72.9,56.8,29.97,West,270,0.0,0.0,57,0.00,,---,0.00,VWS V14.01,2013-06-17 12:31:00,
2013-06-17 08:36:00,73.0,55.9,29.97,NNW,338,0.0,0.0,55,0.00,,---,0.00,VWS V14.01,2013-06-17 12:36:00,
2013-06-17 08:41:00,73.6,55.4,29.97,SSE,158,2.7,2.7,53,0.00,,---,0.00,VWS V14.01,2013-06-17 12:41:00,
2013-06-17 08:46:00,73.8,55.6,29.97,West,270,0.0,0.0,53,0.00,,---,0.00,VWS V14.01,2013-06-17 12:46:00,
2013-06-17 08:51:00,74.1,54.9,29.97,South,180,3.6,3.6,51,0.00,,---,0.00,VWS V14.01,2013-06-17 12:51:00,
2013-06-17 08:56:00,74.5,55.7,29.97,NNE,22,0.0,0.0,52,0.00,,---,0.00,VWS V14.01,2013-06-17 12:56:00,
2013-06-17 09:01:00,75.0,55.7,29.97,West,270,2.7,6.3,51,0.00,,---,0.00,VWS V14.01,2013-06-17 13:01:00,
2013-06-17 09:06:00,74.8,53.8,29.97,South,180,4.0,4.0,48,0.00,,---,0.00,VWS V14.01,2013-06-17 13:06:00,
2013-06-17 09:11:00,75.2,53.6,29.97,WNW,292,0.0,0.0,47,0.00,,---,0.00,VWS V14.01,2013-06-17 13:11:00,
2013-06-17 09:16:00,75.2,54.8,29.97,North,0,3.6,3.6,49,0.00,,---,0.00,VWS V14.01,2013-06-17 13:16:00,
2013-06-17 09:21:00,75.2,53.6,29.97,SE,135,0.0,5.8,47,0.00,,---,0.00,VWS V14.01,2013-06-17 13:21:00,
2013-06-17 09:26:00,75.2,53.0,30.00,West,270,0.0,0.0,46,0.00,,---,0.00,VWS V14.01,2013-06-17 13:26:00,
2013-06-17 09:31:00,75.4,52.0,30.00,NE,45,0.0,5.8,44,0.00,,---,0.00,VWS V14.01,2013-06-17 13:31:00,
2013-06-17 09:36:00,76.1,53.2,30.00,South,180,0.0,0.0,45,0.00,,---,0.00,VWS V14.01,2013-06-17 13:36:00,
2013-06-17 09:41:00,76.3,52.8,30.00,SE,135,0.0,0.0,44,0.00,,---,0.00,VWS V14.01,2013-06-17 13:41:00,
2013-06-17 09:46:00,76.3,52.2,30.00,SSW,202,0.0,0.0,43,0.00,,---,0.00,VWS V14.01,2013-06-17 13:46:00,
2013-06-17 09:51:00,76.8,51.4,30.00,South,180,4.0,4.0,41,0.00,,---,0.00,VWS V14.01,2013-06-17 13:51:00,
2013-06-17 09:56:00,76.6,46.2,29.97,SW,225,0.0,2.2,34,0.00,,---,0.00,VWS V14.01,2013-06-17 13:56:00,
2013-06-17 10:01:00,77.2,45.9,29.97,WNW,292,0.0,0.0,33,0.00,,---,0.00,VWS V14.01,2013-06-17 14:01:00,
2013-06-17 10:06:00,77.4,45.2,29.97,South,180,4.0,4.0,32,0.00,,---,0.00,VWS V14.01,2013-06-17 14:06:00,
2013-06-17 10:11:00,77.7,45.5,29.97,SW,225,2.7,4.0,32,0.00,,---,0.00,VWS V14.01,2013-06-17 14:11:00,
2013-06-17 10:16:00,77.7,43.8,29.97,South,180,0.0,2.7,30,0.00,,---,0.00,VWS V14.01,2013-06-17 14:16:00,
2013-06-17 10:21:00,77.7,44.7,29.97,SSE,158,3.1,3.6,31,0.00,,---,0.00,VWS V14.01,2013-06-17 14:21:00,
2013-06-17 10:26:00,77.7,38.1,29.97,South,180,0.0,7.2,24,0.00,,---,0.00,VWS V14.01,2013-06-17 14:26:00,
2013-06-17 10:31:00,78.1,36.2,29.97,West,270,6.3,7.2,22,0.00,,---,0.00,VWS V14.01,2013-06-17 14:31:00,
2013-06-17 10:36:00,77.9,36.0,29.97,South,180,3.1,5.4,22,0.00,,---,0.00,VWS V14.01,2013-06-17 14:36:00,
2013-06-17 10:41:00,78.4,37.6,29.97,SW,225,0.0,0.0,23,0.00,,---,0.00,VWS V14.01,2013-06-17 14:41:00,
2013-06-17 10:46:00,79.0,35.8,29.97,WSW,248,4.0,4.0,21,0.00,,---,0.00,VWS V14.01,2013-06-17 14:46:00,
2013-06-17 10:51:00,78.8,34.4,29.97,SE,135,0.0,0.0,20,0.00,,---,0.00,VWS V14.01,2013-06-17 14:51:00,
2013-06-17 10:56:00,79.3,34.8,30.00,SE,135,5.4,5.4,20,0.00,,---,0.00,VWS V14.01,2013-06-17 14:56:00,
2013-06-17 11:01:00,79.5,36.2,30.00,NNW,338,0.0,3.1,21,0.00,,---,0.00,VWS V14.01,2013-06-17 15:01:00,
2013-06-17 11:06:00,79.9,35.3,30.00,NW,315,2.2,2.2,20,0.00,,---,0.00,VWS V14.01,2013-06-17 15:06:00,
2013-06-17 11:11:00,80.2,35.6,30.00,West,270,0.0,6.3,20,0.00,,---,0.00,VWS V14.01,2013-06-17 15:11:00,
2013-06-17 11:16:00,80.4,35.7,30.00,SSW,202,5.4,5.4,20,0.00,,---,0.00,VWS V14.01,2013-06-17 15:16:00,
2013-06-17 11:21:00,80.6,35.9,30.00,NW,315,0.0,3.1,20,0.00,,---,0.00,VWS V14.01,2013-06-17 15:21:00,
2013-06-17 11:26:00,79.0,35.8,30.00,North,0,4.0,4.9,21,0.00,,---,0.00,VWS V14.01,2013-06-17 15:26:00,
2013-06-17 11:31:00,77.9,37.2,30.00,NE,45,0.0,0.0,23,0.00,,---,0.00,VWS V14.01,2013-06-17 15:31:00,
2013-06-17 11:36:00,77.7,38.1,30.00,SE,135,0.0,6.3,24,0.00,,---,0.00,VWS V14.01,2013-06-17 15:36:00,
2013-06-17 11:41:00,76.1,38.8,30.00,North,0,3.1,4.9,26,0.00,,---,0.00,VWS V14.01,2013-06-17 15:41:00,
2013-06-17 11:47:00,75.9,43.1,30.00,NW,315,0.0,6.3,31,0.00,,---,0.00,VWS V14.01,2013-06-17 15:47:00,
2013-06-17 11:52:00,75.9,44.0,30.00,South,180,2.2,5.4,32,0.00,,---,0.00,VWS V14.01,2013-06-17 15:52:00,
2013-06-17 11:57:00,75.9,44.8,30.00,West,270,0.0,3.1,33,0.00,,---,0.00,VWS V14.01,2013-06-17 15:57:00,
2013-06-17 12:02:00,75.7,48.4,30.00,NW,315,6.3,6.3,38,0.00,,---,0.00,VWS V14.01,2013-06-17 16:02:00,
2013-06-17 12:07:00,75.6,50.9,30.00,NNW,338,0.0,3.1,42,0.00,,---,0.00,VWS V14.01,2013-06-17 16:07:00,
2013-06-17 12:12:00,75.4,51.3,30.03,South,180,5.8,7.2,43,0.00,,---,0.00,VWS V14.01,2013-06-17 16:12:00,
2013-06-17 12:17:00,74.1,50.2,30.03,SSW,202,5.4,5.4,43,0.00,,---,0.00,VWS V14.01,2013-06-17 16:17:00,
2013-06-17 12:22:00,74.1,51.4,30.03,North,0,0.0,4.9,45,0.00,,---,0.00,VWS V14.01,2013-06-17 16:22:00,
2013-06-17 12:27:00,74.1,52.0,30.03,East,90,4.0,4.0,46,0.00,,---,0.00,VWS V14.01,2013-06-17 16:27:00,
2013-06-17 12:32:00,74.1,52.0,30.03,SW,225,2.7,4.0,46,0.00,,---,0.00,VWS V14.01,2013-06-17 16:32:00,
2013-06-17 12:37:00,75.0,52.9,30.03,NNE,22,0.0,4.0,46,0.00,,---,0.00,VWS V14.01,2013-06-17 16:37:00,
2013-06-17 12:42:00,75.7,53.5,30.03,SW,225,0.0,6.3,46,0.00,,---,0.00,VWS V14.01,2013-06-17 16:42:00,
2013-06-17 12:47:00,75.4,53.8,30.03,East,90,0.0,0.0,47,0.00,,---,0.00,VWS V14.01,2013-06-17 16:47:00,
2013-06-17 12:52:00,75.4,53.2,30.03,North,0,3.6,3.6,46,0.00,,---,0.00,VWS V14.01,2013-06-17 16:52:00,
2013-06-17 12:57:00,74.8,52.7,30.03,SW,225,4.0,4.9,46,0.00,,---,0.00,VWS V14.01,2013-06-17 16:57:00,
2013-06-17 13:02:00,74.3,50.4,30.03,NW,315,2.2,5.8,43,0.00,,---,0.00,VWS V14.01,2013-06-17 17:02:00,
2013-06-17 13:07:00,73.9,50.1,30.03,North,0,4.0,4.0,43,0.00,,---,0.00,VWS V14.01,2013-06-17 17:07:00,
2013-06-17 13:12:00,74.1,49.6,30.03,NW,315,4.0,5.4,42,0.00,,---,0.00,VWS V14.01,2013-06-17 17:12:00,
2013-06-17 13:17:00,75.2,51.2,30.03,North,0,4.9,4.9,43,0.00,,---,0.00,VWS V14.01,2013-06-17 17:17:00,
2013-06-17 13:22:00,75.4,50.7,30.03,SW,225,3.1,4.0,42,0.00,,---,0.00,VWS V14.01,2013-06-17 17:22:00,
2013-06-17 13:27:00,75.6,49.6,30.03,South,180,5.4,5.4,40,0.00,,---,0.00,VWS V14.01,2013-06-17 17:27:00,
2013-06-17 13:32:00,76.1,50.7,30.03,SW,225,3.6,4.0,41,0.00,,---,0.00,VWS V14.01,2013-06-17 17:32:00,
2013-06-17 13:37:00,75.7,48.4,30.03,NW,315,2.7,4.0,38,0.00,,---,0.00,VWS V14.01,2013-06-17 17:37:00,
2013-06-17 13:42:00,75.6,48.2,30.03,West,270,2.2,4.9,38,0.00,,---,0.00,VWS V14.01,2013-06-17 17:42:00,
2013-06-17 13:47:00,75.9,47.8,30.03,SW,225,3.1,3.1,37,0.00,,---,0.00,VWS V14.01,2013-06-17 17:47:00,
2013-06-17 13:52:00,77.4,49.8,30.03,NE,45,2.7,3.1,38,0.00,,---,0.00,VWS V14.01,2013-06-17 17:52:00,
2013-06-17 13:57:00,77.4,47.6,30.03,SW,225,2.7,4.0,35,0.00,,---,0.00,VWS V14.01,2013-06-17 17:57:00,
2013-06-17 14:02:00,77.2,46.7,30.03,South,180,4.5,4.5,34,0.00,,---,0.00,VWS V14.01,2013-06-17 18:02:00,
2013-06-17 14:07:00,78.1,48.2,30.03,SSE,158,0.0,3.6,35,0.00,,---,0.00,VWS V14.01,2013-06-17 18:07:00,
2013-06-17 14:12:00,78.1,45.8,30.03,SSW,202,0.0,0.0,32,0.00,,---,0.00,VWS V14.01,2013-06-17 18:12:00,
2013-06-17 14:17:00,78.3,46.0,30.03,West,270,3.6,4.0,32,0.00,,---,0.00,VWS V14.01,2013-06-17 18:17:00,
2013-06-17 14:22:00,78.6,45.5,30.03,SW,225,0.0,4.0,31,0.00,,---,0.00,VWS V14.01,2013-06-17 18:22:00,
2013-06-17 14:27:00,78.6,44.6,30.03,NW,315,0.0,2.7,30,0.00,,---,0.00,VWS V14.01,2013-06-17 18:27:00,
2013-06-17 14:32:00,77.9,38.2,30.03,SE,135,0.0,0.0,24,0.00,,---,0.00,VWS V14.01,2013-06-17 18:32:00,
2013-06-17 14:37:00,78.8,35.6,30.03,North,0,2.7,5.8,21,0.00,,---,0.00,VWS V14.01,2013-06-17 18:37:00,
2013-06-17 14:42:00,79.0,35.8,30.00,NW,315,2.2,4.0,21,0.00,,---,0.00,VWS V14.01,2013-06-17 18:42:00,
2013-06-17 14:47:00,79.2,34.7,30.00,West,270,2.7,3.6,20,0.00,,---,0.00,VWS V14.01,2013-06-17 18:47:00,
2013-06-17 14:52:00,79.0,34.5,30.00,South,180,5.4,5.4,20,0.00,,---,0.00,VWS V14.01,2013-06-17 18:52:00,
2013-06-17 14:57:00,78.8,35.6,30.03,NW,315,4.9,4.9,21,0.00,,---,0.00,VWS V14.01,2013-06-17 18:57:00,
2013-06-17 15:02:00,78.3,35.2,30.03,NNE,22,4.9,4.9,21,0.00,,---,0.00,VWS V14.01,2013-06-17 19:02:00,
2013-06-17 15:07:00,78.6,35.5,30.03,North,0,2.2,4.0,21,0.00,,---,0.00,VWS V14.01,2013-06-17 19:07:00,
2013-06-17 15:12:00,78.8,35.6,30.03,South,180,2.7,5.4,21,0.00,,---,0.00,VWS V14.01,2013-06-17 19:12:00,
2013-06-17 15:17:00,79.5,35.0,30.03,NW,315,0.0,0.0,20,0.00,,---,0.00,VWS V14.01,2013-06-17 19:17:00,
2013-06-17 15:22:00,79.5,35.0,30.03,SW,225,2.7,4.9,20,0.00,,---,0.00,VWS V14.01,2013-06-17 19:22:00,
2013-06-17 15:27:00,79.5,35.0,30.03,South,180,0.0,2.2,20,0.00,,---,0.00,VWS V14.01,2013-06-17 19:27:00,
2013-06-17 15:32:00,79.3,34.8,30.03,NW,315,3.1,5.4,20,0.00,,---,0.00,VWS V14.01,2013-06-17 19:32:00,
2013-06-17 15:37:00,78.8,34.4,30.03,NW,315,3.6,3.6,20,0.00,,---,0.00,VWS V14.01,2013-06-17 19:37:00,
2013-06-17 15:42:00,78.3,33.9,30.03,NW,315,3.1,3.6,20,0.00,,---,0.00,VWS V14.01,2013-06-17 19:42:00,
2013-06-17 15:47:00,77.0,32.9,30.03,NE,45,0.0,6.3,20,0.00,,---,0.00,VWS V14.01,2013-06-17 19:47:00,
2013-06-17 15:52:00,77.7,33.5,30.03,North,0,3.1,3.1,20,0.00,,---,0.00,VWS V14.01,2013-06-17 19:52:00,
2013-06-17 15:57:00,77.7,33.5,30.03,NW,315,0.0,0.0,20,0.00,,---,0.00,VWS V14.01,2013-06-17 19:57:00,
2013-06-17 16:02:00,78.6,31.6,30.03,SW,225,3.1,4.0,18,0.00,,---,0.00,VWS V14.01,2013-06-17 20:02:00,
2013-06-17 16:07:00,77.7,33.5,30.03,SW,225,0.0,4.0,20,0.00,,---,0.00,VWS V14.01,2013-06-17 20:07:00,
2013-06-17 16:12:00,78.4,34.1,30.03,North,0,2.7,3.6,20,0.00,,---,0.00,VWS V14.01,2013-06-17 20:12:00,
2013-06-17 16:17:00,77.7,33.5,30.03,West,270,3.1,4.9,20,0.00,,---,0.00,VWS V14.01,2013-06-17 20:17:00,
2013-06-17 16:22:00,77.7,30.9,30.03,NNE,22,3.1,3.1,18,0.00,,---,0.00,VWS V14.01,2013-06-17 20:22:00,
2013-06-17 16:27:00,76.6,30.0,30.00,NW,315,2.7,6.3,18,0.00,,---,0.00,VWS V14.01,2013-06-17 20:27:00,
2013-06-17 16:32:00,77.2,30.4,30.00,North,0,0.0,0.0,18,0.00,,---,0.00,VWS V14.01,2013-06-17 20:32:00,
2013-06-17 16:37:00,77.5,30.7,30.00,SW,225,2.2,5.8,18,0.00,,---,0.00,VWS V14.01,2013-06-17 20:37:00,
2013-06-17 16:42:00,77.5,33.3,30.03,WSW,248,2.7,4.9,20,0.00,,---,0.00,VWS V14.01,2013-06-17 20:42:00,
2013-06-17 16:47:00,77.4,33.2,30.03,NW,315,0.0,2.7,20,0.00,,---,0.00,VWS V14.01,2013-06-17 20:47:00,
2013-06-17 16:52:00,77.0,30.3,30.03,East,90,0.0,2.7,18,0.00,,---,0.00,VWS V14.01,2013-06-17 20:52:00,
2013-06-17 16:57:00,77.0,30.3,30.00,East,90,0.0,0.0,18,0.00,,---,0.00,VWS V14.01,2013-06-17 20:57:00,
2013-06-17 17:02:00,76.8,30.1,30.00,North,0,0.0,0.0,18,0.00,,---,0.00,VWS V14.01,2013-06-17 21:02:00,
2013-06-17 17:07:00,76.3,29.7,30.00,NW,315,0.0,0.0,18,0.00,,---,0.00,VWS V14.01,2013-06-17 21:07:00,
2013-06-17 17:12:00,77.0,32.9,30.00,SW,225,0.0,2.2,20,0.00,,---,0.00,VWS V14.01,2013-06-17 21:12:00,
2013-06-17 17:17:00,76.8,32.8,30.00,West,270,0.0,2.7,20,0.00,,---,0.00,VWS V14.01,2013-06-17 21:17:00,
2013-06-17 17:22:00,76.5,29.9,30.00,WNW,292,2.7,3.1,18,0.00,,---,0.00,VWS V14.01,2013-06-17 21:22:00,
2013-06-17 17:27:00,76.8,34.0,30.00,NNW,338,0.0,2.7,21,0.00,,---,0.00,VWS V14.01,2013-06-17 21:27:00,
2013-06-17 17:32:00,77.2,33.0,30.00,SSW,202,0.0,0.0,20,0.00,,---,0.00,VWS V14.01,2013-06-17 21:32:00,
2013-06-17 17:37:00,77.5,33.3,30.00,SE,135,0.0,0.0,20,0.00,,---,0.00,VWS V14.01,2013-06-17 21:37:00,
2013-06-17 17:42:00,77.7,33.5,30.00,WNW,292,3.1,3.1,20,0.00,,---,0.00,VWS V14.01,2013-06-17 21:42:00,
2013-06-17 17:47:00,77.5,33.3,30.00,North,0,0.0,0.0,20,0.00,,---,0.00,VWS V14.01,2013-06-17 21:47:00,
2013-06-17 17:52:00,77.9,33.6,30.00,NW,315,0.0,0.0,20,0.00,,---,0.00,VWS V14.01,2013-06-17 21:52:00,
2013-06-17 17:57:00,77.7,33.5,30.00,West,270,0.0,0.0,20,0.04,,---,0.04,VWS V14.01,2013-06-17 21:57:00,
2013-06-17 18:02:00,77.5,33.3,30.00,SW,225,2.7,3.6,20,0.04,,---,0.04,VWS V14.01,2013-06-17 22:02:00,
2013-06-17 18:07:00,77.5,33.3,30.00,West,270,3.1,3.1,20,0.04,,---,0.04,VWS V14.01,2013-06-17 22:07:00,
2013-06-17 18:12:00,77.4,33.2,30.00,West,270,0.0,2.2,20,0.04,,---,0.04,VWS V14.01,2013-06-17 22:12:00,
2013-06-17 18:17:00,77.4,33.2,30.00,North,0,0.0,0.0,20,0.04,,---,0.04,VWS V14.01,2013-06-17 22:17:00,
2013-06-17 18:22:00,77.5,33.3,30.00,NNE,22,0.0,0.0,20,0.04,,---,0.04,VWS V14.01,2013-06-17 22:22:00,
2013-06-17 18:27:00,77.5,33.3,30.00,WNW,292,0.0,0.0,20,0.04,,---,0.04,VWS V14.01,2013-06-17 22:27:00,
2013-06-17 18:32:00,76.8,32.8,30.00,NW,315,0.0,3.1,20,0.04,,---,0.04,VWS V14.01,2013-06-17 22:32:00,
2013-06-17 18:37:00,76.6,33.8,30.00,NNE,22,2.2,3.6,21,0.04,,---,0.04,VWS V14.01,2013-06-17 22:37:00,
2013-06-17 18:42:00,76.6,33.8,30.00,NW,315,0.0,0.0,21,0.04,,---,0.04,VWS V14.01,2013-06-17 22:42:00,
2013-06-17 18:47:00,76.5,32.5,30.00,NW,315,0.0,0.0,20,0.04,,---,0.04,VWS V14.01,2013-06-17 22:47:00,
2013-06-17 18:52:00,75.7,31.9,30.00,NW,315,0.0,0.0,20,0.04,,---,0.04,VWS V14.01,2013-06-17 22:52:00,
2013-06-17 18:57:00,75.4,32.8,30.00,NW,315,0.0,0.0,21,0.00,,---,0.04,VWS V14.01,2013-06-17 22:57:00,
2013-06-17 19:02:00,74.8,32.3,30.00,North,0,0.0,0.0,21,0.00,,---,0.04,VWS V14.01,2013-06-17 23:02:00,
2013-06-17 19:07:00,74.5,32.0,30.00,North,0,0.0,0.0,21,0.00,,---,0.04,VWS V14.01,2013-06-17 23:07:00,
2013-06-17 19:12:00,73.9,31.6,30.00,North,0,0.0,0.0,21,0.00,,---,0.04,VWS V14.01,2013-06-17 23:12:00,
2013-06-17 19:17:00,73.4,32.3,30.00,North,0,0.0,0.0,22,0.00,,---,0.04,VWS V14.01,2013-06-17 23:17:00,
2013-06-17 19:22:00,73.0,32.0,30.00,North,0,0.0,0.0,22,0.00,,---,0.04,VWS V14.01,2013-06-17 23:22:00,
2013-06-17 19:27:00,72.5,34.7,30.00,North,0,0.0,0.0,25,0.00,,---,0.04,VWS V14.01,2013-06-17 23:27:00,
2013-06-17 19:32:00,72.1,36.3,30.00,North,0,0.0,0.0,27,0.00,,---,0.04,VWS V14.01,2013-06-17 23:32:00,
2013-06-17 19:37:00,71.8,37.0,30.00,North,0,0.0,0.0,28,0.00,,---,0.04,VWS V14.01,2013-06-17 23:37:00,
2013-06-17 19:42:00,71.6,39.4,30.00,North,0,0.0,0.0,31,0.00,,---,0.04,VWS V14.01,2013-06-17 23:42:00,
2013-06-17 19:47:00,71.4,40.0,30.00,NE,45,0.0,0.0,32,0.00,,---,0.00,VWS V14.01,2013-06-17 23:47:00,
2013-06-17 19:52:00,71.2,39.9,30.00,NE,45,0.0,0.0,32,0.00,,---,0.04,VWS V14.01,2013-06-17 23:52:00,
2013-06-17 19:57:00,70.9,40.4,30.00,NE,45,0.0,0.0,33,0.00,,---,0.04,VWS V14.01,2013-06-17 23:57:00,
2013-06-17 20:02:00,70.5,39.3,30.00,NE,45,0.0,0.0,32,0.00,,---,0.04,VWS V14.01,2013-06-18 00:02:00,
2013-06-17 20:07:00,70.2,39.0,30.00,NE,45,0.0,0.0,32,0.00,,---,0.04,VWS V14.01,2013-06-18 00:07:00,
2013-06-17 20:12:00,70.0,38.8,30.00,NW,315,0.0,0.0,32,0.00,,---,0.04,VWS V14.01,2013-06-18 00:12:00,
2013-06-17 20:17:00,69.8,38.6,30.00,NW,315,0.0,0.0,32,0.00,,---,0.04,VWS V14.01,2013-06-18 00:17:00,
2013-06-17 20:22:00,69.4,39.1,30.00,NW,315,0.0,0.0,33,0.00,,---,0.04,VWS V14.01,2013-06-18 00:22:00,
2013-06-17 20:27:00,68.9,42.3,30.00,WSW,248,0.0,0.0,38,0.00,,---,0.04,VWS V14.01,2013-06-18 00:27:00,
2013-06-17 20:32:00,68.4,45.0,30.00,WSW,248,0.0,0.0,43,0.00,,---,0.04,VWS V14.01,2013-06-18 00:32:00,
2013-06-17 20:37:00,67.3,47.5,30.00,South,180,3.6,3.6,49,0.00,,---,0.04,VWS V14.01,2013-06-18 00:37:00,
2013-06-17 20:42:00,66.4,51.6,30.03,SE,135,2.2,6.3,59,0.00,,---,0.04,VWS V14.01,2013-06-18 00:42:00,
2013-06-17 20:47:00,65.5,54.7,30.03,NW,315,5.4,6.7,68,0.00,,---,0.04,VWS V14.01,2013-06-18 00:47:00,
2013-06-17 20:52:00,64.9,55.7,30.03,ESE,112,2.7,7.2,72,0.00,,---,0.04,VWS V14.01,2013-06-18 00:52:00,
2013-06-17 20:57:00,64.8,55.9,30.03,SW,225,4.0,4.0,73,0.00,,---,0.04,VWS V14.01,2013-06-18 00:57:00,
2013-06-17 21:02:00,64.9,54.9,30.03,SW,225,4.0,4.0,70,0.00,,---,0.04,VWS V14.01,2013-06-18 01:02:00,
2013-06-17 21:07:00,65.1,51.8,30.03,SW,225,0.0,6.3,62,0.00,,---,0.04,VWS V14.01,2013-06-18 01:07:00,
2013-06-17 21:12:00,64.8,50.6,30.00,South,180,4.9,4.9,60,0.00,,---,0.04,VWS V14.01,2013-06-18 01:12:00,
2013-06-17 21:17:00,64.6,50.0,30.00,SW,225,3.1,5.4,59,0.00,,---,0.04,VWS V14.01,2013-06-18 01:17:00,
2013-06-17 21:22:00,64.6,48.5,30.00,South,180,2.2,2.7,56,0.00,,---,0.04,VWS V14.01,2013-06-18 01:22:00,
2013-06-17 21:27:00,64.6,47.1,29.97,South,180,3.1,6.7,53,0.00,,---,0.04,VWS V14.01,2013-06-18 01:27:00,
2013-06-17 21:32:00,65.3,45.7,29.97,South,180,5.4,5.4,49,0.00,,---,0.04,VWS V14.01,2013-06-18 01:32:00,
2013-06-17 21:37:00,65.7,46.0,29.97,West,270,0.0,4.5,49,0.00,,---,0.04,VWS V14.01,2013-06-18 01:37:00,
2013-06-17 21:42:00,65.8,43.9,29.94,SW,225,4.9,4.9,45,0.00,,---,0.04,VWS V14.01,2013-06-18 01:42:00,
2013-06-17 21:47:00,66.6,42.2,29.94,SW,225,4.0,4.9,41,0.00,,---,0.04,VWS V14.01,2013-06-18 01:47:00,
2013-06-17 21:52:00,67.3,40.8,29.94,South,180,3.6,6.3,38,0.00,,---,0.04,VWS V14.01,2013-06-18 01:52:00,
2013-06-17 21:57:00,67.5,41.0,29.94,North,0,2.7,3.1,38,0.00,,---,0.04,VWS V14.01,2013-06-18 01:57:00,
2013-06-17 22:02:00,67.5,40.3,29.94,SW,225,0.0,3.1,37,0.00,,---,0.04,VWS V14.01,2013-06-18 02:02:00,
2013-06-17 22:07:00,67.6,39.8,29.94,West,270,0.0,4.0,36,0.00,,---,0.04,VWS V14.01,2013-06-18 02:07:00,
2013-06-17 22:12:00,67.8,39.2,29.97,South,180,6.7,6.7,35,0.00,,---,0.04,VWS V14.01,2013-06-18 02:12:00,
2013-06-17 22:17:00,68.0,38.6,29.97,SSW,202,2.2,3.1,34,0.00,,---,0.04,VWS V14.01,2013-06-18 02:17:00,
2013-06-17 22:22:00,68.0,38.6,29.97,SW,225,3.6,4.0,34,0.00,,---,0.04,VWS V14.01,2013-06-18 02:22:00,
2013-06-17 22:27:00,68.2,38.8,29.97,SW,225,2.2,2.2,34,0.00,,---,0.04,VWS V14.01,2013-06-18 02:27:00,
2013-06-17 22:32:00,68.0,38.6,29.97,East,90,0.0,0.0,34,0.00,,---,0.04,VWS V14.01,2013-06-18 02:32:00,
2013-06-17 22:37:00,68.0,38.6,29.97,NE,45,0.0,3.1,34,0.00,,---,0.04,VWS V14.01,2013-06-18 02:37:00,
2013-06-17 22:42:00,67.8,39.2,29.97,NNE,22,4.9,4.9,35,0.00,,---,0.04,VWS V14.01,2013-06-18 02:42:00,
2013-06-17 22:47:00,68.2,38.0,29.97,NE,45,0.0,2.2,33,0.00,,---,0.04,VWS V14.01,2013-06-18 02:47:00,
2013-06-17 22:52:00,67.8,38.5,29.97,East,90,0.0,0.0,34,0.00,,---,0.04,VWS V14.01,2013-06-18 02:52:00,
2013-06-17 22:57:00,67.6,39.0,29.97,West,270,2.2,2.2,35,0.00,,---,0.04,VWS V14.01,2013-06-18 02:57:00,
2013-06-17 23:02:00,67.5,38.9,29.97,NE,45,0.0,0.0,35,0.00,,---,0.04,VWS V14.01,2013-06-18 03:02:00,
2013-06-17 23:07:00,67.1,39.3,29.97,NE,45,0.0,0.0,36,0.00,,---,0.04,VWS V14.01,2013-06-18 03:07:00,
2013-06-17 23:12:00,66.9,39.8,30.00,NE,45,0.0,0.0,37,0.00,,---,0.04,VWS V14.01,2013-06-18 03:12:00,
2013-06-17 23:17:00,66.6,40.9,30.00,East,90,3.6,4.0,39,0.00,,---,0.04,VWS V14.01,2013-06-18 03:17:00,
2013-06-17 23:22:00,66.2,43.7,30.00,NE,45,2.7,5.4,44,0.00,,---,0.04,VWS V14.01,2013-06-18 03:22:00,
2013-06-17 23:27:00,65.7,43.8,30.03,South,180,0.0,4.0,45,0.00,,---,0.04,VWS V14.01,2013-06-18 03:27:00,
2013-06-17 23:32:00,65.1,43.8,30.03,WNW,292,0.0,0.0,46,0.00,,---,0.04,VWS V14.01,2013-06-18 03:32:00,
2013-06-17 23:37:00,64.6,45.0,30.03,SW,225,0.0,0.0,49,0.00,,---,0.04,VWS V14.01,2013-06-18 03:37:00,
2013-06-17 23:42:00,64.0,46.1,30.03,SE,135,0.0,0.0,52,0.00,,---,0.04,VWS V14.01,2013-06-18 03:42:00,
2013-06-17 23:47:00,63.7,47.2,30.03,South,180,0.0,0.0,55,0.00,,---,0.04,VWS V14.01,2013-06-18 03:47:00,
2013-06-17 23:52:00,63.3,48.8,30.03,NE,45,0.0,0.0,59,0.00,,---,0.04,VWS V14.01,2013-06-18 03:52:00,
2013-06-17 23:57:00,63.0,50.6,30.03,South,180,0.0,3.1,64,0.00,,---,0.04,VWS V14.01,2013-06-18 03:57:00,